STARLINK-34381 (64282 NORAD) Tracking and Keplerian Element Data

This shows tracking and keplerian element data for the satellite.

Feedback or suggestion? Click here.




ElementValue
Catalog64282
NameSTARLINK-34381
Epoch Orbit3160
Epoch Day353.41061772
Epoch Year2025
RAAN129.6789
Inclination53.1581
Eccentricity0.0001911
Argument of Perigee82.0543
Mean Anonmoly278.0674
Mean Motion15.30203132
Decay Rate0.00016602
L11 64282U 25120AC 25353.41061772 .00016602 00000+0 57134-3 0 9995
L22 64282 53.1581 129.6789 0001911 82.0543 278.0674 15.30203132 31607



Live tracking and technical data element details for STARLINK-34381 (NORAD 64282). STARLINK-34381 can be tracked NOW for your location showing map with azimuth and elevation plus other details from your city location.







IsCatalogInMostPopularTable: catalog: 64282, numindb: 5
Update: records affected: 1



GetName: 64282 STARLINK-34381

Hit Count: updated at: Sat, 11 Apr 2026 21:56:46 GMT